Regional Weather Roundup
Issued by NWS

Home | Current Version | Previous Version | Graphics & Text | Print | Product List | Glossary On
Versions: 1 2 3 4 5 6 7 8 9 10 11 12 13 14 15 16 17 18 19 20 21 22 23 24 25 26 27 28 29 30 31 32 33 34 35 36 37 38 39 40 41 42 43 44 45 46 47 48 49 50
000
ASUS43 KFSD 250210
RWRSD

WEATHER ROUNDUP FOR SOUTH DAKOTA
NATIONAL WEATHER SERVICE SIOUX FALLS SD
900 PM CDT WED AUG 24 2016

NOTE: "FAIR" INDICATES FEW OR NO CLOUDS BELOW 12,000 FEET WITH NO
SIGNIFICANT WEATHER AND/OR OBSTRUCTIONS TO VISIBILITY.


SDZ001>005-009-010-012>017-250300-
NORTHWEST AND NORTH CENTRAL SOUTH DAKOTA

CITY           SKY/WX    TMP DP  RH WIND       PRES   REMARKS
BUFFALO          N/A     60  43  53 NW18      30.13R
FAITH            N/A     66  46  48 NW14      30.13R
MOBRIDGE       PTCLDY    70  45  40 NW9       30.04R
$$

SDZ012>016-024>037-041>051-057-063-072>074-250300-
SOUTHWEST AND SOUTH CENTRAL SOUTH DAKOTA

CITY           SKY/WX    TMP DP  RH WIND       PRES   REMARKS
RAPID CTY ARPT PTCLDY    65  46  50 N17       30.19R
PIERRE         PTCLDY    65  48  54 NW6       30.06R
CUSTER         CLOUDY    59  41  51 E7        30.27R
ELLSWORTH AFB  TSTM      62  51  65 N15       30.18R
PHILIP         CLOUDY    67  48  50 CALM      30.11R
PINE RIDGE     CLOUDY    65  49  56 NE7       30.17R
WINNER         FAIR      66  55  67 SW7       30.11S
$$

SDZ004>011-016>023-039-040-250300-
NORTHEAST SOUTH DAKOTA

CITY           SKY/WX    TMP DP  RH WIND       PRES   REMARKS
ABERDEEN       CLEAR     62  54  74 SW5       30.00R
WATERTOWN      PTCLDY    63  56  78 SW5       30.02R
BROOKINGS      PTCLDY    65  58  78 SW7       30.05S
SISSETON         N/A     63  57  81 W3        29.97S
$$

SDZ017-020-022-023-036>040-048>070-250300-
SOUTHEAST SOUTH DAKOTA

CITY           SKY/WX    TMP DP  RH WIND       PRES   REMARKS
SIOUX FALLS    CLOUDY    69  59  70 SW3       30.06R
HURON          CLOUDY    68  55  63 SW9       30.04R
CHAMBERLAIN    CLOUDY    65  57  74 S3        30.08S
MITCHELL       CLOUDY    69  56  62 W8        30.06S
YANKTON        PTCLDY    66  55  68 S3        30.06R
$$

ABBREVIATIONS USED IN REMARKS
   TC - TEMPERATURE IN CELSIUS
  WCI - WIND CHILL INDEX
   HX - HEAT INDEX
  VSB - VISIBILITY





USA.gov is the U.S. government's official web portal to all federal, state and local government web resources and services.